Time,TemperatureF,DewpointF,PressureIn,WindDirection,WindDirectionDegrees,WindSpeedMPH,WindSpeedGustMPH,Humidity,HourlyPrecipIn,Conditions,Clouds,dailyrainin,SolarRadiationWatts/m^2,SoftwareType,DateUTC
2013-01-16 00:02:00,37.6,16.0,30.52,East,80,4.0,-999.0,42,-99.99,,,0.00,0,weatherlink.com 1.10,2013-01-16 08:02:00,
2013-01-16 00:17:00,37.6,16.0,30.52,East,86,0.0,-999.0,42,-99.99,,,0.00,0,weatherlink.com 1.10,2013-01-16 08:17:00,
2013-01-16 00:32:00,37.4,16.0,30.52,ESE,109,1.0,-999.0,42,-99.99,,,0.00,0,weatherlink.com 1.10,2013-01-16 08:32:00,
2013-01-16 00:47:00,37.3,17.0,30.52,East,82,0.0,-999.0,43,-99.99,,,0.00,0,weatherlink.com 1.10,2013-01-16 08:47:00,
2013-01-16 01:02:00,37.4,16.0,30.51,East,90,0.0,-999.0,42,-99.99,,,0.00,0,weatherlink.com 1.10,2013-01-16 09:02:00,
2013-01-16 01:17:00,37.5,17.0,30.51,ENE,70,3.0,-999.0,43,-99.99,,,0.00,0,weatherlink.com 1.10,2013-01-16 09:17:00,
2013-01-16 01:32:00,37.4,17.0,30.52,ESE,109,0.0,-999.0,43,-99.99,,,0.00,0,weatherlink.com 1.10,2013-01-16 09:32:00,
2013-01-16 01:47:00,36.6,16.0,30.52,East,88,3.0,-999.0,44,-99.99,,,0.00,0,weatherlink.com 1.10,2013-01-16 09:47:00,
2013-01-16 02:02:00,37.0,17.0,30.52,East,86,3.0,-999.0,44,-99.99,,,0.00,0,weatherlink.com 1.10,2013-01-16 10:02:00,
2013-01-16 02:17:00,37.4,17.0,30.52,East,93,4.0,-999.0,43,-99.99,,,0.00,0,weatherlink.com 1.10,2013-01-16 10:17:00,
2013-01-16 02:32:00,37.4,17.0,30.52,ENE,58,5.0,-999.0,43,-99.99,,,0.00,0,weatherlink.com 1.10,2013-01-16 10:32:00,
2013-01-16 02:47:00,36.9,16.0,30.53,East,90,4.0,-999.0,43,-99.99,,,0.00,0,weatherlink.com 1.10,2013-01-16 10:47:00,
2013-01-16 03:02:00,36.7,16.0,30.53,East,96,4.0,-999.0,43,-99.99,,,0.00,0,weatherlink.com 1.10,2013-01-16 11:02:00,
2013-01-16 03:17:00,36.4,16.0,30.52,East,82,1.0,-999.0,44,-99.99,,,0.00,0,weatherlink.com 1.10,2013-01-16 11:17:00,
2013-01-16 03:32:00,36.3,16.0,30.52,ESE,111,5.0,-999.0,44,-99.99,,,0.00,0,weatherlink.com 1.10,2013-01-16 11:32:00,
2013-01-16 03:48:00,36.2,16.0,30.51,ENE,76,2.0,-999.0,44,-99.99,,,0.00,0,weatherlink.com 1.10,2013-01-16 11:48:00,
2013-01-16 04:02:00,35.6,16.0,30.51,East,100,1.0,-999.0,45,-99.99,,,0.00,0,weatherlink.com 1.10,2013-01-16 12:02:00,
2013-01-16 04:17:00,35.2,16.0,30.51,East,90,0.0,-999.0,46,-99.99,,,0.00,0,weatherlink.com 1.10,2013-01-16 12:17:00,
2013-01-16 04:32:00,34.7,16.0,30.50,East,85,0.0,-999.0,47,-99.99,,,0.00,0,weatherlink.com 1.10,2013-01-16 12:32:00,
2013-01-16 04:48:00,33.9,16.0,30.50,East,80,0.0,-999.0,49,-99.99,,,0.00,0,weatherlink.com 1.10,2013-01-16 12:48:00,
2013-01-16 05:03:00,31.8,16.0,30.50,East,80,0.0,-999.0,52,-99.99,,,0.00,0,weatherlink.com 1.10,2013-01-16 13:03:00,
2013-01-16 05:18:00,32.1,17.0,30.50,East,80,0.0,-999.0,54,-99.99,,,0.00,0,weatherlink.com 1.10,2013-01-16 13:18:00,
2013-01-16 05:33:00,32.2,17.0,30.50,East,80,0.0,-999.0,53,-99.99,,,0.00,0,weatherlink.com 1.10,2013-01-16 13:33:00,
2013-01-16 05:48:00,33.1,17.0,30.50,ENE,64,0.0,-999.0,51,-99.99,,,0.00,0,weatherlink.com 1.10,2013-01-16 13:48:00,
2013-01-16 06:03:00,32.1,16.0,30.50,ENE,64,0.0,-999.0,52,-99.99,,,0.00,0,weatherlink.com 1.10,2013-01-16 14:03:00,
2013-01-16 06:18:00,31.8,18.0,30.50,ENE,65,2.0,-999.0,56,-99.99,,,0.00,0,weatherlink.com 1.10,2013-01-16 14:18:00,
2013-01-16 06:33:00,33.5,17.0,30.50,ENE,67,3.0,-999.0,52,-99.99,,,0.00,0,weatherlink.com 1.10,2013-01-16 14:33:00,
2013-01-16 06:48:00,33.9,17.0,30.50,East,82,0.0,-999.0,51,-99.99,,,0.00,0,weatherlink.com 1.10,2013-01-16 14:48:00,
2013-01-16 07:03:00,32.1,17.0,30.51,East,82,0.0,-999.0,54,-99.99,,,0.00,0,weatherlink.com 1.10,2013-01-16 15:03:00,
2013-01-16 07:18:00,33.8,18.0,30.51,East,91,4.0,-999.0,52,-99.99,,,0.00,11,weatherlink.com 1.10,2013-01-16 15:18:00,
2013-01-16 07:33:00,35.1,18.0,30.51,ESE,103,2.0,-999.0,50,-99.99,,,0.00,14,weatherlink.com 1.10,2013-01-16 15:33:00,
2013-01-16 07:48:00,36.1,18.0,30.52,East,79,2.0,-999.0,49,-99.99,,,0.00,18,weatherlink.com 1.10,2013-01-16 15:48:00,
2013-01-16 08:03:00,37.1,18.0,30.52,East,81,5.0,-999.0,47,-99.99,,,0.00,21,weatherlink.com 1.10,2013-01-16 16:03:00,
2013-01-16 08:18:00,38.3,19.0,30.52,ENE,78,0.0,-999.0,46,-99.99,,,0.00,21,weatherlink.com 1.10,2013-01-16 16:18:00,
2013-01-16 08:33:00,39.6,19.0,30.52,East,98,2.0,-999.0,44,-99.99,,,0.00,23,weatherlink.com 1.10,2013-01-16 16:33:00,
2013-01-16 08:48:00,40.8,20.0,30.52,East,89,0.0,-999.0,43,-99.99,,,0.00,25,weatherlink.com 1.10,2013-01-16 16:48:00,
2013-01-16 09:03:00,42.7,20.0,30.52,ENE,74,13.0,-999.0,40,-99.99,,,0.00,214,weatherlink.com 1.10,2013-01-16 17:03:00,
2013-01-16 09:18:00,44.2,20.0,30.52,ENE,69,3.0,-999.0,38,-99.99,,,0.00,306,weatherlink.com 1.10,2013-01-16 17:18:00,
2013-01-16 09:33:00,46.4,19.0,30.51,East,84,6.0,-999.0,34,-99.99,,,0.00,142,weatherlink.com 1.10,2013-01-16 17:33:00,
2013-01-16 09:48:00,47.5,19.0,30.51,East,80,3.0,-999.0,32,-99.99,,,0.00,294,weatherlink.com 1.10,2013-01-16 17:48:00,
2013-01-16 10:03:00,48.5,19.0,30.50,ENE,75,4.0,-999.0,31,-99.99,,,0.00,334,weatherlink.com 1.10,2013-01-16 18:03:00,
2013-01-16 10:18:00,49.0,19.0,30.50,East,86,6.0,-999.0,30,-99.99,,,0.00,283,weatherlink.com 1.10,2013-01-16 18:18:00,
2013-01-16 10:33:00,50.0,19.0,30.49,East,96,4.0,-999.0,29,-99.99,,,0.00,526,weatherlink.com 1.10,2013-01-16 18:33:00,
2013-01-16 10:48:00,50.5,18.0,30.48,ESE,107,4.0,-999.0,28,-99.99,,,0.00,547,weatherlink.com 1.10,2013-01-16 18:48:00,
2013-01-16 11:04:00,51.1,18.0,30.46,East,79,8.0,-999.0,27,-99.99,,,0.00,563,weatherlink.com 1.10,2013-01-16 19:04:00,
2013-01-16 11:19:00,51.5,17.0,30.45,East,92,6.0,-999.0,26,-99.99,,,0.00,577,weatherlink.com 1.10,2013-01-16 19:19:00,
2013-01-16 11:34:00,52.3,18.0,30.44,SE,129,8.0,-999.0,26,-99.99,,,0.00,585,weatherlink.com 1.10,2013-01-16 19:34:00,
2013-01-16 11:49:00,52.9,18.0,30.44,East,92,5.0,-999.0,25,-99.99,,,0.00,592,weatherlink.com 1.10,2013-01-16 19:49:00,
2013-01-16 12:04:00,53.2,17.0,30.43,East,84,3.0,-999.0,24,-99.99,,,0.00,596,weatherlink.com 1.10,2013-01-16 20:04:00,
2013-01-16 12:19:00,53.7,18.0,30.41,ENE,65,2.0,-999.0,24,-99.99,,,0.00,592,weatherlink.com 1.10,2013-01-16 20:19:00,
2013-01-16 12:34:00,53.8,18.0,30.41,ESE,104,4.0,-999.0,24,-99.99,,,0.00,585,weatherlink.com 1.10,2013-01-16 20:34:00,
2013-01-16 12:49:00,54.9,18.0,30.40,East,94,5.0,-999.0,23,-99.99,,,0.00,575,weatherlink.com 1.10,2013-01-16 20:49:00,
2013-01-16 13:04:00,55.5,17.0,30.39,ENE,67,0.0,-999.0,22,-99.99,,,0.00,561,weatherlink.com 1.10,2013-01-16 21:04:00,
2013-01-16 13:19:00,55.8,16.0,30.38,ESE,115,4.0,-999.0,21,-99.99,,,0.00,545,weatherlink.com 1.10,2013-01-16 21:19:00,
2013-01-16 13:34:00,55.8,16.0,30.38,East,88,3.0,-999.0,21,-99.99,,,0.00,522,weatherlink.com 1.10,2013-01-16 21:34:00,
2013-01-16 13:49:00,55.7,15.0,30.38,East,80,1.0,-999.0,20,-99.99,,,0.00,499,weatherlink.com 1.10,2013-01-16 21:49:00,
2013-01-16 14:04:00,55.8,15.0,30.38,East,89,3.0,-999.0,20,-99.99,,,0.00,469,weatherlink.com 1.10,2013-01-16 22:04:00,
2013-01-16 14:19:00,55.6,15.0,30.38,East,92,0.0,-999.0,20,-99.99,,,0.00,186,weatherlink.com 1.10,2013-01-16 22:19:00,
2013-01-16 14:34:00,55.5,15.0,30.37,East,89,5.0,-999.0,20,-99.99,,,0.00,294,weatherlink.com 1.10,2013-01-16 22:34:00,
2013-01-16 14:49:00,54.9,14.0,30.38,ESE,117,7.0,-999.0,20,-99.99,,,0.00,313,weatherlink.com 1.10,2013-01-16 22:49:00,
2013-01-16 15:04:00,54.5,14.0,30.38,East,88,3.0,-999.0,20,-99.99,,,0.00,32,weatherlink.com 1.10,2013-01-16 23:04:00,
2013-01-16 15:19:00,54.3,14.0,30.38,East,93,8.0,-999.0,20,-99.99,,,0.00,28,weatherlink.com 1.10,2013-01-16 23:19:00,
2013-01-16 15:34:00,54.0,14.0,30.38,ENE,71,4.0,-999.0,20,-99.99,,,0.00,49,weatherlink.com 1.10,2013-01-16 23:34:00,
2013-01-16 15:49:00,53.9,14.0,30.38,ENE,78,4.0,-999.0,20,-99.99,,,0.00,195,weatherlink.com 1.10,2013-01-16 23:49:00,
2013-01-16 16:04:00,53.4,13.0,30.39,East,98,6.0,-999.0,20,-99.99,,,0.00,139,weatherlink.com 1.10,2013-01-17 00:04:00,
2013-01-16 16:19:00,52.5,14.0,30.38,ESE,104,5.0,-999.0,22,-99.99,,,0.00,84,weatherlink.com 1.10,2013-01-17 00:19:00,
2013-01-16 16:34:00,51.8,14.0,30.39,East,81,2.0,-999.0,22,-99.99,,,0.00,42,weatherlink.com 1.10,2013-01-17 00:34:00,
2013-01-16 16:49:00,49.8,15.0,30.39,East,79,0.0,-999.0,25,-99.99,,,0.00,12,weatherlink.com 1.10,2013-01-17 00:49:00,
2013-01-16 17:04:00,48.6,13.0,30.39,East,82,2.0,-999.0,24,-99.99,,,0.00,5,weatherlink.com 1.10,2013-01-17 01:04:00,
2013-01-16 17:19:00,49.2,12.0,30.39,ENE,69,0.0,-999.0,22,-99.99,,,0.00,0,weatherlink.com 1.10,2013-01-17 01:19:00,
2013-01-16 17:34:00,48.7,12.0,30.39,ENE,74,0.0,-999.0,23,-99.99,,,0.00,0,weatherlink.com 1.10,2013-01-17 01:34:00,
2013-01-16 17:49:00,44.9,13.0,30.39,ENE,74,0.0,-999.0,27,-99.99,,,0.00,0,weatherlink.com 1.10,2013-01-17 01:49:00,
2013-01-16 18:04:00,43.3,14.0,30.39,ENE,74,0.0,-999.0,30,-99.99,,,0.00,0,weatherlink.com 1.10,2013-01-17 02:04:00,
2013-01-16 18:19:00,43.9,13.0,30.39,ENE,74,0.0,-999.0,29,-99.99,,,0.00,0,weatherlink.com 1.10,2013-01-17 02:19:00,
2013-01-16 18:34:00,42.2,13.0,30.40,ENE,74,0.0,-999.0,31,-99.99,,,0.00,0,weatherlink.com 1.10,2013-01-17 02:34:00,
2013-01-16 18:49:00,48.0,11.0,30.39,SE,132,0.0,-999.0,22,-99.99,,,0.00,0,weatherlink.com 1.10,2013-01-17 02:49:00,
2013-01-16 19:04:00,49.2,10.0,30.39,East,87,8.0,-999.0,20,-99.99,,,0.00,0,weatherlink.com 1.10,2013-01-17 03:04:00,
2013-01-16 19:19:00,46.6,11.0,30.40,East,85,3.0,-999.0,24,-99.99,,,0.00,0,weatherlink.com 1.10,2013-01-17 03:19:00,
2013-01-16 19:34:00,44.6,11.0,30.39,East,86,0.0,-999.0,26,-99.99,,,0.00,0,weatherlink.com 1.10,2013-01-17 03:34:00,
2013-01-16 19:49:00,42.0,12.0,30.39,East,86,0.0,-999.0,29,-99.99,,,0.00,0,weatherlink.com 1.10,2013-01-17 03:49:00,
2013-01-16 20:04:00,40.3,12.0,30.39,East,86,0.0,-999.0,32,-99.99,,,0.00,0,weatherlink.com 1.10,2013-01-17 04:04:00,
2013-01-16 20:19:00,42.7,12.0,30.39,East,84,4.0,-999.0,29,-99.99,,,0.00,0,weatherlink.com 1.10,2013-01-17 04:19:00,
2013-01-16 20:34:00,46.8,11.0,30.39,ESE,103,1.0,-999.0,23,-99.99,,,0.00,0,weatherlink.com 1.10,2013-01-17 04:34:00,
2013-01-16 20:49:00,43.3,12.0,30.39,ESE,102,0.0,-999.0,28,-99.99,,,0.00,0,weatherlink.com 1.10,2013-01-17 04:49:00,
2013-01-16 21:04:00,42.7,12.0,30.39,East,101,2.0,-999.0,29,-99.99,,,0.00,0,weatherlink.com 1.10,2013-01-17 05:04:00,
2013-01-16 21:19:00,44.2,12.0,30.39,East,84,2.0,-999.0,27,-99.99,,,0.00,0,weatherlink.com 1.10,2013-01-17 05:19:00,
2013-01-16 21:34:00,43.0,12.0,30.38,East,84,0.0,-999.0,28,-99.99,,,0.00,0,weatherlink.com 1.10,2013-01-17 05:34:00,
2013-01-16 21:49:00,43.4,10.0,30.38,East,79,3.0,-999.0,26,-99.99,,,0.00,0,weatherlink.com 1.10,2013-01-17 05:49:00,
2013-01-16 22:05:00,47.5,10.0,30.37,East,93,1.0,-999.0,22,-99.99,,,0.00,0,weatherlink.com 1.10,2013-01-17 06:05:00,
2013-01-16 22:19:00,48.2,9.0,30.37,ESE,120,1.0,-999.0,20,-99.99,,,0.00,0,weatherlink.com 1.10,2013-01-17 06:19:00,
2013-01-16 22:34:00,48.3,10.0,30.37,East,82,2.0,-999.0,21,-99.99,,,0.00,0,weatherlink.com 1.10,2013-01-17 06:34:00,
2013-01-16 22:49:00,47.9,10.0,30.36,East,79,0.0,-999.0,21,-99.99,,,0.00,0,weatherlink.com 1.10,2013-01-17 06:49:00,
2013-01-16 23:04:00,47.8,9.0,30.36,ESE,109,1.0,-999.0,21,-99.99,,,0.00,0,weatherlink.com 1.10,2013-01-17 07:04:00,
2013-01-16 23:19:00,48.0,10.0,30.36,ENE,76,2.0,-999.0,21,-99.99,,,0.00,0,weatherlink.com 1.10,2013-01-17 07:19:00,
2013-01-16 23:34:00,47.6,9.0,30.36,East,98,2.0,-999.0,21,-99.99,,,0.00,0,weatherlink.com 1.10,2013-01-17 07:34:00,
2013-01-16 23:49:00,47.4,10.0,30.36,East,100,0.0,-999.0,22,-99.99,,,0.00,0,weatherlink.com 1.10,2013-01-17 07:49:00,